Location: Vinland
(47.7731°N, 122.6974°W)
Time: 19:01:34
(UTC+00:00)

Vanguard 2 - Pass Details

Date: 26 April 2024
Orbit: 553 x 2914 km, 32.9° (Epoch: 22 May)

Event Time Altitude Azimuth Distance (km) Brightness Sun altitude
Exits shadow 06:35:35 14° 109° (ESE) 4,845 11.2 -25.1°
Drops below altitude 10° 06:38:10 10° 101° (E) 5,307 11.5 -25.3°
Sets 06:44:42 0° 86° (E) 6,606 12.1 -25.7°
